Location: Amherst
(42.5000°N, 72.5000°W)
Time: 20:25:28
(UTC-04:00)

ISS - Pass Details

Date: 20 July 2018
Orbit: 402 x 408 km, 51.6° (Epoch: 17 July)

Event Time Altitude Azimuth Distance (km) Brightness Sun altitude
Rises 04:03:11 0° 303° (WNW) 2,331 -0.1 -13.6°
Reaches altitude 10° 04:05:16 10° 303° (WNW) 1,468 -1.1 -13.3°
Maximum altitude 04:08:34 87° 222° (SW) 411 -3.9 -12.9°
Drops below altitude 10° 04:11:51 10° 126° (SE) 1,462 -0.9 -12.5°
Sets 04:13:55 0° 126° (SE) 2,319 0.2 -12.2°
